DECAYED

STARLINK-30546, 58003 (Decayed)

Orbit data source: Space-Track

STARLINK-30546, 58003 was a payload satellite owned by SpaceX/Seattle (US) in LEO that was launched on Thu, 05 Oct 2023 UTC via an FALCON 9 launch vehicle from the Air Force Eastern Test Range (AFETR). Payload-class satellites include a variety of spacecraft equipped with specific instruments for various scientific and technological missions. These include communications satellites like Starlink; space stations such as the ISS; scientific satellites like the Hubble; Earth observation satellites from companies like Planet Labs, Umbra, and HawkEye 360; GPS; miniature CubeSats for education and research; and military/defense satellites.

Not visible in the next 10 days
Identifier
58003, 2023-153N
Orbit
Decayed
Country
Flag of USUS
Related business
Manufacturer
SpaceX/Seattle
Mission
Decayed Commercial Communications
Bus & Motor
STARLINK V2M, Unknown motor
Mass
730 kg wet, ~700 kg dry
Launch date (UTC)
2023-10-05 (3 years ago)
Launch vehicle
FALCON 9
Launch site
Air Force Eastern Test Range (AFETR)
Object type
Payload
Rocket body
Debris
Shape & HBR
Box + 2 Pan, 17.7 m
Radar Cross Section
33.884 m², Large (>1 m²)

Expand to show TLE details & history
Last TLE update: 2 months ago

TLE from 2 months ago
0 STARLINK-30546
1 58003U 23153N   26108.40805294  .06106695  89677-5  27109-2 0  9995
2 58003  42.9980 191.9233 0009384 290.7120  69.2760 16.21226414141097
Epoch: 2026-04-18T09:47Z
TLE epoch observation values (Epoch: 2026-04-18T09:47:35.774Z)
Latitude
0.00001°
Longitude
-161.50308°
Altitude
213.806 km
Speed
7.781 km/s
True Right ascension
12h 47m 41s
True Declination
0° 00' 00"
Sunlit
Object was in full shadow at epoch
Visualization orbit readout
Latitude
Unknown
Longitude
Unknown
Altitude
Unknown
Speed
Unknown
Apparent Right ascension
Unknown
Apparent Declination
Unknown
Sunlit
N/A
Visualization observer readout
Local Sidereal Time
21:26:32
Azimuth
Unknown
Elevation
Unknown
Doppler factor
Unknown
Orbital elements
Apogee altitude
224.438 km
Perigee altitude
212.058 km
Semi-major axis
6,596.385 km
Eccentricity
0.00094
Inclination
42.998°
RAAN
191.9233°
Arg. of periapsis
290.712°
True anomaly
69.37662°
Mean anomaly
69.276°
Eccentric anomaly
69.3263°
Mean motion
4.0512 °/min
Orbital period
88.86 mins
BSTAR
0.0027109
Loading maneuver chart data...
Computing Atmospheric mass density...
Loading historical data...
Loading historical data...
Loading historical data...
Loading historical data...
Loading historical data...
Loading historical data...
Loading historical data...

Documentation

Showing up to 5 results
|